Weather History for MGMM - March, 2014

Change the Weather History Date:

Thursday, March 27, 2014

  Actual Average Record
Temperature  
Mean Temperature 82 °F -  
Max Temperature 96 °F - - ()
Min Temperature 69 °F - - ()
Cooling Degree Days 18    
Growing Degree Days 32 (Base 50)    
Moisture  
Dew Point 68 °F    
Average Humidity 67    
Maximum Humidity 100    
Minimum Humidity 37    
Precipitation  
Precipitation 0.00 in - - ()
Sea Level Pressure  
Sea Level Pressure 29.97 in    
Wind  
Wind Speed 6 mph ()    
Max Wind Speed 14 mph    
Max Gust Speed -    
Visibility 6.2 miles    
Events      
T = Trace of Precipitation, MM = Missing Value Source: Averaged Metar Reports

Daily Weather History Graph

Daily Weather History Graph

Search for Another Location

Airport or City:

Trip Planner

Search our weather history database for the weather conditions in past years. The results will help you decide how hot, cold, wet, or windy it might be!

Date:

Astronomy

Mar. 27, 2014 Rise Set
Actual Time 5:55 AM CST 6:08 PM CST
Civil Twilight 5:33 AM CST 6:30 PM CST
Nautical Twilight 5:08 AM CST 6:55 PM CST
Astronomical Twilight 4:42 AM CST 7:21 PM CST
Moon 3:17 AM CST (3/27) 3:20 PM CST (3/27)
Length of Visible Light 12h 56m
Length of Day
12h 13m
Waning Crescent, 12% of the Moon is Illuminated
Mar 27
Waning Crescent
Mar 30
New
Apr 7
First Quarter
Apr 15
Full
Apr 22
Last Quarter

Hourly Weather History & Observations

Time (CST) Temp. Heat Index Dew Point Humidity Pressure Visibility Wind Dir Wind Speed Gust Speed Precip Events Conditions
12:00 AM 73.4 °F - 68.0 °F 83% 30.04 in - ESE 6.9 mph - N/A   Clear
1:00 AM 71.6 °F - 66.2 °F 83% 30.04 in - ESE 4.6 mph - N/A   Clear
2:00 AM 71.6 °F - 66.2 °F 83% 30.01 in - Calm Calm - N/A   Clear
3:00 AM 71.6 °F - 68.0 °F 88% 29.98 in - Calm Calm - N/A   Clear
4:00 AM 71.6 °F - 68.0 °F 88% 29.98 in - ESE 4.6 mph - N/A   Clear
5:00 AM 69.8 °F - 68.0 °F 94% 29.98 in - ESE 4.6 mph - N/A   Clear
6:00 AM 69.8 °F - 69.8 °F 100% 30.01 in 6.2 mi ESE 4.6 mph - N/A   Partly Cloudy
7:00 AM 71.6 °F - 69.8 °F 94% 30.01 in 6.2 mi ESE 6.9 mph - N/A   Scattered Clouds
8:00 AM 78.8 °F - 73.4 °F 83% 30.04 in - East 9.2 mph - N/A   Clear
9:00 AM 82.4 °F 88.2 °F 73.4 °F 74% 30.04 in - East 9.2 mph - N/A   Clear
10:00 AM 87.8 °F 93.8 °F 71.6 °F 58% 30.04 in 6.2 mi ESE 9.2 mph - N/A   Scattered Clouds
11:00 AM 89.6 °F 94.7 °F 69.8 °F 52% 30.01 in 6.2 mi ESE 6.9 mph - N/A   Scattered Clouds
12:00 PM 91.4 °F 96.8 °F 69.8 °F 49% 29.98 in 6.2 mi ESE 11.5 mph - N/A   Mostly Cloudy
1:00 PM 95.0 °F 99.5 °F 68.0 °F 41% 29.95 in 6.2 mi SE 11.5 mph - N/A   Scattered Clouds
2:00 PM 96.8 °F 101.8 °F 68.0 °F 39% 29.92 in 6.2 mi ESE 9.2 mph - N/A   Scattered Clouds
3:00 PM 96.8 °F 100.7 °F 66.2 °F 37% 29.89 in 6.2 mi East 9.2 mph - N/A   Partly Cloudy
4:00 PM 95.0 °F 98.5 °F 66.2 °F 39% 29.89 in 6.2 mi ESE 11.5 mph - N/A   Partly Cloudy
5:00 PM 93.2 °F 96.2 °F 66.2 °F 41% 29.89 in - ESE 13.8 mph - N/A   Clear
6:00 PM 89.6 °F 92.2 °F 66.2 °F 46% 29.89 in - East 9.2 mph - N/A   Clear
7:00 PM 84.2 °F 86.6 °F 66.2 °F 55% 29.92 in - East 6.9 mph - N/A   Clear
8:00 PM 78.8 °F - 66.2 °F 65% 29.95 in - East 6.9 mph - N/A   Clear
9:00 PM 77.0 °F - 66.2 °F 69% 29.95 in - East 9.2 mph - N/A   Clear
10:00 PM 75.2 °F - 66.2 °F 73% 29.98 in - East 4.6 mph - N/A   Clear
11:00 PM 73.4 °F - 66.2 °F 78% 29.98 in - Calm Calm - N/A   Clear